#Datum;Uhrzeit;WR;Pac;DaySum;Status;WR;Pac;DaySum;Status;Pdc1;Udc;Temp;WR;Pac;DaySum;Status;Pdc1;Udc;Temp;WR;Pac;DaySum;Status;Pdc1;Udc;Temp;WR;Pac;DaySum;Status;Pdc1;Pdc2;Udc1;Udc2;Temp;WR;Pac;DaySum;Status;Pdc1;Pdc2;Udc1;Udc2;Temp;WR;Pac;DaySum;Status;Pdc1;Udc;Temp;WR;Pac;DaySum;Status;Pdc1;Udc;Temp;WR;Pac;DaySum;Status;Pdc1;Udc;Temp
16.02.19;23:55:00;1;454;16496;0;2;0;22590;0;0;0;0;3;0;14644;0;0;0;0;4;0;19723;0;0;0;0;5;0;52147;0;0;0;0;0;0;6;0;39734;0;0;0;0;0;0;7;0;36050;0;0;0;0;8;0;34919;0;0;0;0;9;0;18747;0;0;0;0
16.02.19;23:50:00;1;937;16458;0;2;0;22590;0;0;0;0;3;0;14644;0;0;0;0;4;0;19723;0;0;0;0;5;0;52147;0;0;0;0;0;0;6;0;39734;0;0;0;0;0;0;7;0;36050;0;0;0;0;8;0;34919;0;0;0;0;9;0;18747;0;0;0;0
16.02.19;23:45:00;1;380;16397;0;2;0;22590;0;0;0;0;3;0;14644;0;0;0;0;4;0;19723;0;0;0;0;5;0;52147;0;0;0;0;0;0;6;0;39734;0;0;0;0;0;0;7;0;36050;0;0;0;0;8;0;34919;0;0;0;0;9;0;18747;0;0;0;0
16.02.19;23:40:00;1;378;16365;0;2;0;22590;0;0;0;0;3;0;14644;0;0;0;0;4;0;19723;0;0;0;0;5;0;52147;0;0;0;0;0;0;6;0;39734;0;0;0;0;0;0;7;0;36050;0;0;0;0;8;0;34919;0;0;0;0;9;0;18747;0;0;0;0
16.02.19;23:35:00;1;378;16333;0;2;0;22590;0;0;0;0;3;0;14644;0;0;0;0;4;0;19723;0;0;0;0;5;0;52147;0;0;0;0;0;0;6;0;39734;0;0;0;0;0;0;7;0;36050;0;0;0;0;8;0;34919;0;0;0;0;9;0;18747;0;0;0;0
16.02.19;23:30:00;1;381;16302;0;2;0;22590;0;0;0;0;3;0;14644;0;0;0;0;4;0;19723;0;0;0;0;5;0;52147;0;0;0;0;0;0;6;0;39734;0;0;0;0;0;0;7;0;36050;0;0;0;0;8;0;34919;0;0;0;0;9;0;18747;0;0;0;0
16.02.19;23:25:00;1;577;16270;0;2;0;22590;0;0;0;0;3;0;14644;0;0;0;0;4;0;19723;0;0;0;0;5;0;52147;0;0;0;0;0;0;6;0;39734;0;0;0;0;0;0;7;0;36050;0;0;0;0;8;0;34919;0;0;0;0;9;0;18747;0;0;0;0
16.02.19;23:20:00;1;377;16212;0;2;0;22590;0;0;0;0;3;0;14644;0;0;0;0;4;0;19723;0;0;0;0;5;0;52147;0;0;0;0;0;0;6;0;39734;0;0;0;0;0;0;7;0;36050;0;0;0;0;8;0;34919;0;0;0;0;9;0;18747;0;0;0;0
16.02.19;23:15:00;1;379;16181;0;2;0;22590;0;0;0;0;3;0;14644;0;0;0;0;4;0;19723;0;0;0;0;5;0;52147;0;0;0;0;0;0;6;0;39734;0;0;0;0;0;0;7;0;36050;0;0;0;0;8;0;34919;0;0;0;0;9;0;18747;0;0;0;0
16.02.19;23:10:00;1;387;16149;0;2;0;22590;0;0;0;0;3;0;14644;0;0;0;0;4;0;19723;0;0;0;0;5;0;52147;0;0;0;0;0;0;6;0;39734;0;0;0;0;0;0;7;0;36050;0;0;0;0;8;0;34919;0;0;0;0;9;0;18747;0;0;0;0
16.02.19;23:05:00;1;412;16117;0;2;0;22590;0;0;0;0;3;0;14644;0;0;0;0;4;0;19723;0;0;0;0;5;0;52147;0;0;0;0;0;0;6;0;39734;0;0;0;0;0;0;7;0;36050;0;0;0;0;8;0;34919;0;0;0;0;9;0;18747;0;0;0;0
16.02.19;23:00:00;1;1493;16083;0;2;0;22590;0;0;0;0;3;0;14644;0;0;0;0;4;0;19723;0;0;0;0;5;0;52147;0;0;0;0;0;0;6;0;39734;0;0;0;0;0;0;7;0;36050;0;0;0;0;8;0;34919;0;0;0;0;9;0;18747;0;0;0;0
16.02.19;22:55:00;1;2748;15945;0;2;0;22590;0;0;0;0;3;0;14644;0;0;0;0;4;0;19723;0;0;0;0;5;0;52147;2;0;0;0;0;0;6;0;39734;2;0;0;0;0;0;7;0;36050;0;0;0;0;8;0;34919;0;0;0;0;9;0;18747;0;0;0;0
16.02.19;22:50:00;1;2308;15723;0;2;0;22590;0;0;0;0;3;0;14644;0;0;0;0;4;0;19723;0;0;0;0;5;0;52147;2;0;0;0;0;0;6;0;39734;2;0;0;0;0;0;7;0;36050;0;0;0;0;8;0;34919;0;0;0;0;9;0;18747;0;0;0;0
16.02.19;22:45:00;1;966;15531;0;2;0;22590;0;0;0;0;3;0;14644;0;0;0;0;4;0;19723;0;0;0;0;5;0;52147;2;0;0;0;0;0;6;0;39734;2;0;0;0;0;0;7;0;36050;0;0;0;0;8;0;34919;0;0;0;0;9;0;18747;0;0;0;0
16.02.19;22:40:00;1;1813;15442;0;2;0;22590;0;0;0;0;3;0;14644;0;0;0;0;4;0;19723;0;0;0;0;5;0;52147;2;0;0;0;0;0;6;0;39734;2;0;0;0;0;0;7;0;36050;0;0;0;0;8;0;34919;0;0;0;0;9;0;18747;0;0;0;0
16.02.19;22:35:00;1;484;15299;0;2;0;22590;0;0;0;0;3;0;14644;0;0;0;0;4;0;19723;0;0;0;0;5;0;52147;2;0;0;0;0;0;6;0;39734;2;0;0;0;0;0;7;0;36050;0;0;0;0;8;0;34919;0;0;0;0;9;0;18747;0;0;0;0
16.02.19;22:30:00;1;513;15259;0;2;0;22590;0;0;0;0;3;0;14644;0;0;0;0;4;0;19723;0;0;0;0;5;0;52147;2;0;0;0;0;0;6;0;39734;2;0;0;0;0;0;7;0;36050;0;0;0;0;8;0;34919;0;0;0;0;9;0;18747;0;0;0;0
16.02.19;22:25:00;1;1893;15216;0;2;0;22590;0;0;0;0;3;0;14644;0;0;0;0;4;0;19723;0;0;0;0;5;0;52147;2;0;0;0;0;0;6;0;39734;2;0;0;0;0;0;7;0;36050;0;0;0;0;8;0;34919;0;0;0;0;9;0;18747;0;0;0;0
16.02.19;22:20:00;1;1706;15049;0;2;0;22590;0;0;0;0;3;0;14644;0;0;0;0;4;0;19723;0;0;0;0;5;0;52147;2;0;0;0;0;0;6;0;39734;2;0;0;0;0;0;7;0;36050;0;0;0;0;8;0;34919;0;0;0;0;9;0;18747;0;0;0;0
16.02.19;22:15:00;1;1551;14911;0;2;0;22590;0;0;0;0;3;0;14644;0;0;0;0;4;0;19723;0;0;0;0;5;0;52147;2;0;0;0;0;0;6;0;39734;2;0;0;0;0;0;7;0;36050;0;0;0;0;8;0;34919;0;0;0;0;9;0;18747;0;0;0;0
16.02.19;22:10:00;1;2487;14764;0;2;0;22590;0;0;0;0;3;0;14644;0;0;0;0;4;0;19723;0;0;0;0;5;0;52147;2;0;0;0;0;0;6;0;39734;2;0;0;0;0;0;7;0;36050;0;0;0;0;8;0;34919;0;0;0;0;9;0;18747;0;0;0;0
16.02.19;22:05:00;1;569;14561;0;2;0;22590;0;0;0;0;3;0;14644;0;0;0;0;4;0;19723;0;0;0;0;5;0;52147;2;0;0;0;0;0;6;0;39734;2;0;0;0;0;0;7;0;36050;0;0;0;0;8;0;34919;0;0;0;0;9;0;18747;0;0;0;0
16.02.19;22:00:00;1;2020;14513;0;2;0;22590;0;0;0;0;3;0;14644;0;0;0;0;4;0;19723;0;0;0;0;5;0;52147;2;0;0;0;0;0;6;0;39734;2;0;0;0;0;0;7;0;36050;0;0;0;0;8;0;34919;0;0;0;0;9;0;18747;0;0;0;0
16.02.19;21:55:00;1;2528;14345;0;2;0;22590;0;0;0;0;3;0;14644;0;0;0;0;4;0;19723;0;0;0;0;5;0;52147;2;0;0;0;0;0;6;0;39734;2;0;0;0;0;0;7;0;36050;0;0;0;0;8;0;34919;0;0;0;0;9;0;18747;0;0;0;0
16.02.19;21:50:00;1;712;14134;0;2;0;22590;0;0;0;0;3;0;14644;0;0;0;0;4;0;19723;0;0;0;0;5;0;52147;2;0;0;0;0;0;6;0;39734;2;0;0;0;0;0;7;0;36050;0;0;0;0;8;0;34919;0;0;0;0;9;0;18747;0;0;0;0
16.02.19;21:45:00;1;425;14094;0;2;0;22590;0;0;0;0;3;0;14644;0;0;0;0;4;0;19723;0;0;0;0;5;0;52147;2;0;0;0;0;0;6;0;39734;2;0;0;0;0;0;7;0;36050;0;0;0;0;8;0;34919;0;0;0;0;9;0;18747;0;0;0;0
16.02.19;21:40:00;1;640;14057;0;2;0;22590;0;0;0;0;3;0;14644;0;0;0;0;4;0;19723;0;0;0;0;5;0;52147;2;0;0;0;0;0;6;0;39734;2;0;0;0;0;0;7;0;36050;0;0;0;0;8;0;34919;0;0;0;0;9;0;18747;0;0;0;0
16.02.19;21:35:00;1;438;13995;0;2;0;22590;0;0;0;0;3;0;14644;0;0;0;0;4;0;19723;0;0;0;0;5;0;52147;2;0;0;0;0;0;6;0;39734;2;0;0;0;0;0;7;0;36050;0;0;0;0;8;0;34919;0;0;0;0;9;0;18747;0;0;0;0
16.02.19;21:30:00;1;433;13958;0;2;0;22590;0;0;0;0;3;0;14644;0;0;0;0;4;0;19723;0;0;0;0;5;0;52147;2;0;0;0;0;0;6;0;39734;2;0;0;0;0;0;7;0;36050;0;0;0;0;8;0;34919;0;0;0;0;9;0;18747;0;0;0;0
16.02.19;21:25:00;1;435;13922;0;2;0;22590;0;0;0;0;3;0;14644;0;0;0;0;4;0;19723;0;0;0;0;5;0;52147;2;0;0;0;0;0;6;0;39734;2;0;0;0;0;0;7;0;36050;0;0;0;0;8;0;34919;0;0;0;0;9;0;18747;0;0;0;0
16.02.19;21:20:00;1;434;13886;0;2;0;22590;0;0;0;0;3;0;14644;0;0;0;0;4;0;19723;0;0;0;0;5;0;52147;2;0;0;0;0;0;6;0;39734;2;0;0;0;0;0;7;0;36050;0;0;0;0;8;0;34919;0;0;0;0;9;0;18747;0;0;0;0
16.02.19;21:15:00;1;432;13850;0;2;0;22590;0;0;0;0;3;0;14644;0;0;0;0;4;0;19723;0;0;0;0;5;0;52147;2;0;0;0;0;0;6;0;39734;2;0;0;0;0;0;7;0;36050;0;0;0;0;8;0;34919;0;0;0;0;9;0;18747;0;0;0;0
16.02.19;21:10:00;1;458;13814;0;2;0;22590;0;0;0;0;3;0;14644;0;0;0;0;4;0;19723;0;0;0;0;5;0;52147;2;0;0;0;0;0;6;0;39734;2;0;0;0;0;0;7;0;36050;0;0;0;0;8;0;34919;0;0;0;0;9;0;18747;0;0;0;0
16.02.19;21:05:00;1;896;13776;0;2;0;22590;0;0;0;0;3;0;14644;0;0;0;0;4;0;19723;0;0;0;0;5;0;52147;2;0;0;0;0;0;6;0;39734;2;0;0;0;0;0;7;0;36050;0;0;0;0;8;0;34919;0;0;0;0;9;0;18747;0;0;0;0
16.02.19;21:00:00;1;482;13710;0;2;0;22590;0;0;0;0;3;0;14644;0;0;0;0;4;0;19723;0;0;0;0;5;0;52147;2;0;0;0;0;0;6;0;39734;2;0;0;0;0;0;7;0;36050;0;0;0;0;8;0;34919;0;0;0;0;9;0;18747;0;0;0;0
16.02.19;20:55:00;1;447;13670;0;2;0;22590;0;0;0;0;3;0;14644;0;0;0;0;4;0;19723;0;0;0;0;5;0;52147;2;0;0;0;0;0;6;0;39734;2;0;0;0;0;0;7;0;36050;0;0;0;0;8;0;34919;0;0;0;0;9;0;18747;0;0;0;0
16.02.19;20:50:00;1;437;13633;0;2;0;22590;0;0;0;0;3;0;14644;0;0;0;0;4;0;19723;0;0;0;0;5;0;52147;2;0;0;0;0;0;6;0;39734;2;0;0;0;0;0;7;0;36050;0;0;0;0;8;0;34919;0;0;0;0;9;0;18747;0;0;0;0
16.02.19;20:45:00;1;383;13596;0;2;0;22590;0;0;0;0;3;0;14644;0;0;0;0;4;0;19723;0;0;0;0;5;0;52147;2;0;0;0;0;0;6;0;39734;2;0;0;0;0;0;7;0;36050;0;0;0;0;8;0;34919;0;0;0;0;9;0;18747;0;0;0;0
16.02.19;20:40:00;1;317;13565;0;2;0;22590;0;0;0;0;3;0;14644;0;0;0;0;4;0;19723;0;0;0;0;5;0;52147;2;0;0;0;0;0;6;0;39734;2;0;0;0;0;0;7;0;36050;0;0;0;0;8;0;34919;0;0;0;0;9;0;18747;0;0;0;0
16.02.19;20:35:00;1;317;13539;0;2;0;22590;0;0;0;0;3;0;14644;0;0;0;0;4;0;19723;0;0;0;0;5;0;52147;2;0;0;0;0;0;6;0;39734;2;0;0;0;0;0;7;0;36050;0;0;0;0;8;0;34919;0;0;0;0;9;0;18747;0;0;0;0
16.02.19;20:30:00;1;317;13512;0;2;0;22590;0;0;0;0;3;0;14644;0;0;0;0;4;0;19723;0;0;0;0;5;0;52147;2;0;0;0;0;0;6;0;39734;2;0;0;0;0;0;7;0;36050;0;0;0;0;8;0;34919;0;0;0;0;9;0;18747;0;0;0;0
16.02.19;20:25:00;1;674;13482;0;2;0;22590;0;0;0;0;3;0;14644;0;0;0;0;4;0;19723;0;0;0;0;5;0;52147;2;0;0;0;0;0;6;0;39734;2;0;0;0;0;0;7;0;36050;0;0;0;0;8;0;34919;0;0;0;0;9;0;18747;0;0;0;0
16.02.19;20:20:00;1;367;13432;0;2;0;22590;0;0;0;0;3;0;14644;0;0;0;0;4;0;19723;0;0;0;0;5;0;52147;2;0;0;0;0;0;6;0;39734;2;0;0;0;0;0;7;0;36050;0;0;0;0;8;0;34919;0;0;0;0;9;0;18747;0;0;0;0
16.02.19;20:15:00;1;379;13402;0;2;0;22590;0;0;0;0;3;0;14644;0;0;0;0;4;0;19723;0;0;0;0;5;0;52147;2;0;0;0;0;0;6;0;39734;2;0;0;0;0;0;7;0;36050;0;0;0;0;8;0;34919;0;0;0;0;9;0;18747;0;0;0;0
16.02.19;20:10:00;1;413;13370;0;2;0;22590;0;0;0;0;3;0;14644;0;0;0;0;4;0;19723;0;0;0;0;5;0;52147;2;0;0;0;0;0;6;0;39734;2;0;0;0;0;0;7;0;36050;0;0;0;0;8;0;34919;0;0;0;0;9;0;18747;0;0;0;0
16.02.19;20:05:00;1;418;13335;0;2;0;22590;0;0;0;0;3;0;14644;0;0;0;0;4;0;19723;0;0;0;0;5;0;52147;2;0;0;0;0;0;6;0;39734;2;0;0;0;0;0;7;0;36050;0;0;0;0;8;0;34919;0;0;0;0;9;0;18747;0;0;0;0
16.02.19;20:00:00;1;396;13300;0;2;0;22590;0;0;0;0;3;0;14644;0;0;0;0;4;0;19723;0;0;0;0;5;0;52147;2;0;0;0;0;0;6;0;39734;2;0;0;0;0;0;7;0;36050;0;0;0;0;8;0;34919;0;0;0;0;9;0;18747;0;0;0;0
16.02.19;19:55:00;1;375;13267;0;2;0;22590;0;0;0;0;3;0;14644;0;0;0;0;4;0;19723;0;0;0;0;5;0;52147;2;0;0;0;0;0;6;0;39734;2;0;0;0;0;0;7;0;36050;0;0;0;0;8;0;34919;0;0;0;0;9;0;18747;0;0;0;0
16.02.19;19:50:00;1;394;13236;0;2;0;22590;0;0;0;0;3;0;14644;0;0;0;0;4;0;19723;0;0;0;0;5;0;52147;2;0;0;0;0;0;6;0;39734;2;0;0;0;0;0;7;0;36050;0;0;0;0;8;0;34919;0;0;0;0;9;0;18747;0;0;0;0
16.02.19;19:45:00;1;736;13196;0;2;0;22590;0;0;0;0;3;0;14644;0;0;0;0;4;0;19723;0;0;0;0;5;0;52147;2;0;0;0;0;0;6;0;39734;2;0;0;0;0;0;7;0;36050;0;0;0;0;8;0;34919;0;0;0;0;9;0;18747;0;0;0;0
16.02.19;19:40:00;1;323;13146;0;2;0;22590;0;0;0;0;3;0;14644;0;0;0;0;4;0;19723;0;0;0;0;5;0;52147;2;0;0;0;0;0;6;0;39734;2;0;0;0;0;0;7;0;36050;0;0;0;0;8;0;34919;0;0;0;0;9;0;18747;0;0;0;0
16.02.19;19:35:00;1;1326;13118;0;2;0;22590;0;0;0;0;3;0;14644;0;0;0;0;4;0;19723;0;0;0;0;5;0;52147;2;0;0;0;0;0;6;0;39734;2;0;0;0;0;0;7;0;36050;0;0;0;0;8;0;34919;0;0;0;0;9;0;18747;0;0;0;0
16.02.19;19:30:00;1;1289;12963;0;2;0;22590;0;0;0;0;3;0;14644;0;0;0;0;4;0;19723;0;0;0;0;5;0;52147;2;0;0;0;0;0;6;0;39734;2;0;0;0;0;0;7;0;36050;0;0;0;0;8;0;34919;0;0;0;0;9;0;18747;0;0;0;0
16.02.19;19:25:00;1;2341;12809;0;2;0;22590;0;0;0;0;3;0;14644;0;0;0;0;4;0;19723;0;0;0;0;5;0;52147;2;0;0;0;0;0;6;0;39734;2;0;0;0;0;0;7;0;36050;0;0;0;0;8;0;34919;0;0;0;0;9;0;18747;0;0;0;0
16.02.19;19:20:00;1;1611;12648;0;2;0;22590;0;0;0;0;3;0;14644;0;0;0;0;4;0;19723;0;0;0;0;5;0;52147;2;0;0;0;0;0;6;0;39734;2;0;0;0;0;0;7;0;36050;0;0;0;0;8;0;34919;0;0;0;0;9;0;18747;0;0;0;0
16.02.19;19:15:00;1;2278;12518;0;2;0;22590;0;0;0;0;3;0;14644;0;0;0;0;4;0;19723;0;0;0;0;5;0;52147;2;0;0;0;0;0;6;0;39734;2;0;0;0;0;0;7;0;36050;0;0;0;0;8;0;34919;0;0;0;0;9;0;18747;0;0;0;0
16.02.19;19:10:00;1;2289;12348;0;2;0;22590;0;0;0;0;3;0;14644;0;0;0;0;4;0;19723;0;0;0;0;5;0;52147;2;0;0;0;0;0;6;0;39734;2;0;0;0;0;0;7;0;36050;0;0;0;0;8;0;34919;0;0;0;0;9;0;18747;0;0;0;0
16.02.19;19:05:00;1;524;12186;0;2;0;22590;0;0;0;0;3;0;14644;0;0;0;0;4;0;19723;0;0;0;0;5;0;52147;2;0;0;0;0;0;6;0;39734;2;0;0;0;0;0;7;0;36050;0;0;0;0;8;0;34919;0;0;0;0;9;0;18747;0;0;0;0
16.02.19;19:00:00;1;292;12157;0;2;0;22590;0;0;0;0;3;0;14644;0;0;0;0;4;0;19723;0;0;0;0;5;0;52147;2;0;0;0;0;0;6;0;39734;2;0;0;0;0;0;7;0;36050;0;0;0;0;8;0;34919;0;0;0;0;9;0;18747;0;0;0;0
16.02.19;18:55:00;1;248;12135;0;2;0;22590;0;0;0;0;3;0;14644;0;0;0;0;4;0;19723;0;0;0;0;5;0;52147;2;0;0;0;0;0;6;0;39734;2;0;0;0;0;0;7;0;36050;0;0;0;0;8;0;34919;0;0;0;0;9;0;18747;0;0;0;0
16.02.19;18:50:00;1;249;12114;0;2;0;22590;0;0;0;0;3;0;14644;0;0;0;0;4;0;19723;0;0;0;0;5;0;52147;2;0;0;0;0;0;6;0;39734;2;0;0;0;0;0;7;0;36050;0;0;0;0;8;0;34919;0;0;0;0;9;0;18747;0;0;0;0
16.02.19;18:45:00;1;251;12094;0;2;0;22590;0;0;0;0;3;0;14644;0;0;0;0;4;0;19723;0;0;0;0;5;0;52147;2;0;0;0;0;0;6;0;39734;2;0;0;0;0;0;7;0;36050;0;0;0;0;8;0;34919;0;0;0;0;9;0;18747;0;0;0;0
16.02.19;18:40:00;1;251;12073;0;2;0;22590;0;0;0;0;3;0;14644;0;0;0;0;4;0;19723;0;0;0;0;5;0;52147;2;0;0;0;0;0;6;0;39734;2;0;0;0;0;0;7;0;36050;0;0;0;0;8;0;34919;0;0;0;0;9;0;18747;0;0;0;0
16.02.19;18:35:00;1;251;12052;0;2;0;22590;0;0;0;0;3;0;14644;0;0;0;0;4;0;19723;0;0;0;0;5;0;52147;2;0;0;0;0;0;6;0;39734;2;0;0;0;0;0;7;0;36050;0;0;0;0;8;0;34919;0;0;0;0;9;0;18747;0;0;0;0
16.02.19;18:30:00;1;281;12031;0;2;0;22590;0;0;0;0;3;0;14644;0;0;0;0;4;0;19723;0;0;0;0;5;0;52147;2;0;0;0;0;0;6;0;39734;2;0;0;0;0;0;7;0;36050;0;0;0;0;8;0;34919;0;0;0;0;9;0;18747;0;0;0;0
16.02.19;18:25:00;1;481;12006;0;2;0;22590;0;0;0;0;3;0;14644;0;0;0;0;4;0;19723;0;0;0;0;5;0;52147;2;0;0;0;0;0;6;0;39734;2;0;0;0;0;0;7;0;36050;0;0;0;0;8;0;34919;0;0;0;0;9;0;18747;0;0;0;0
16.02.19;18:20:00;1;674;11964;0;2;0;22590;0;0;0;0;3;0;14644;0;0;0;0;4;0;19723;0;0;0;0;5;0;52147;2;0;0;0;0;0;6;0;39734;2;0;0;0;0;0;7;0;36050;0;0;0;0;8;0;34919;0;0;0;0;9;0;18747;0;0;0;0
16.02.19;18:15:00;1;504;11901;0;2;0;22590;0;0;0;0;3;0;14644;0;0;0;0;4;0;19723;0;0;0;0;5;0;52147;2;0;0;0;0;0;6;0;39734;2;0;0;0;0;0;7;0;36050;0;0;0;0;8;0;34919;0;0;0;0;9;0;18747;0;0;0;0
16.02.19;18:10:00;1;559;11859;0;2;0;22590;0;0;0;0;3;0;14644;0;0;0;0;4;0;19723;0;0;0;0;5;0;52147;2;0;0;0;0;0;6;0;39734;2;0;0;0;0;0;7;0;36050;0;0;0;0;8;0;34919;0;0;0;0;9;0;18747;0;0;0;0
16.02.19;18:05:00;1;376;11812;0;2;0;22590;0;0;0;0;3;0;14644;0;0;0;0;4;0;19723;0;0;0;0;5;0;52147;2;0;0;0;0;0;6;0;39734;2;0;0;0;0;0;7;0;36050;0;0;0;0;8;0;34919;0;0;0;0;9;0;18747;0;0;0;0
16.02.19;18:00:00;1;326;11784;0;2;0;22590;0;0;0;0;3;0;14644;0;0;83;6;4;0;19723;0;0;0;0;5;0;52147;2;0;0;0;0;0;6;0;39734;2;0;0;0;0;0;7;0;36050;0;0;0;0;8;0;34919;0;0;0;0;9;0;18747;0;0;0;0
16.02.19;17:55:00;1;542;11754;0;2;0;22590;2;0;275;17;3;0;14644;6;0;306;19;4;0;19723;0;0;0;0;5;0;52147;2;0;0;0;0;0;6;0;39734;2;0;0;0;0;0;7;0;36050;0;0;0;0;8;0;34919;0;0;0;0;9;0;18747;0;0;0;0
16.02.19;17:50:00;1;481;11708;0;2;0;22590;6;0;318;18;3;0;14644;6;0;375;20;4;0;19723;2;0;74;17;5;0;52147;2;0;0;0;0;0;6;0;39734;2;0;0;0;0;0;7;0;36050;0;0;0;0;8;0;34919;0;0;0;0;9;0;18747;0;0;0;0
16.02.19;17:45:00;1;481;11668;0;2;0;22590;6;0;357;19;3;0;14644;6;1;428;20;4;0;19723;1;0;123;17;5;0;52147;26;0;0;349;354;27;6;0;39734;23;9;0;180;449;25;7;0;36050;0;0;234;17;8;0;34919;0;0;231;16;9;0;18747;0;0;240;11
16.02.19;17:40:00;1;456;11629;0;2;0;22590;6;0;379;19;3;1;14644;6;3;454;21;4;0;19723;1;0;168;18;5;0;52147;23;0;0;409;519;27;6;0;39734;23;0;8;491;249;25;7;0;36050;6;0;352;21;8;0;34919;6;0;351;20;9;0;18747;6;0;361;14
16.02.19;17:35:00;1;640;11591;0;2;0;22590;6;0;395;20;3;2;14644;6;5;456;21;4;0;19723;1;0;195;18;5;13;52147;1;0;1;408;644;28;6;0;39734;23;8;1;249;506;26;7;0;36050;6;0;415;22;8;0;34919;6;1;403;20;9;0;18747;6;0;427;15
16.02.19;17:30:00;1;304;11534;0;2;0;22590;6;0;407;21;3;3;14644;6;5;493;22;4;0;19723;1;0;223;19;5;55;52146;1;0;6;403;644;29;6;9;39734;23;6;6;489;540;27;7;0;36050;6;0;455;22;8;2;34919;6;4;416;21;9;0;18747;6;2;471;15
16.02.19;17:25:00;1;217;11511;0;2;18;22590;6;30;395;22;3;1;14644;6;6;511;22;4;0;19723;3;0;200;20;5;95;52141;4;12;22;397;635;29;6;56;39733;4;24;29;462;368;28;7;3;36050;3;11;445;23;8;2;34919;6;4;465;22;9;0;18747;6;0;528;16
16.02.19;17:20:00;1;249;11493;0;2;199;22588;4;236;356;23;3;112;14644;4;152;428;23;4;125;19723;3;130;204;20;5;131;52133;4;29;37;397;635;29;6;78;39728;4;42;44;463;368;28;7;8;36050;6;12;468;24;8;4;34918;6;9;475;22;9;4;18747;3;11;489;16
16.02.19;17:15:00;1;260;11472;0;2;315;22572;4;359;398;24;3;207;14635;4;245;430;24;4;320;19713;5;333;210;21;5;201;52122;4;77;66;397;635;30;6;133;39720;4;58;66;462;368;28;7;78;36049;4;112;395;24;8;36;34918;6;64;409;23;9;3;18746;6;7;537;17
16.02.19;17:10:00;1;262;11450;0;2;439;22546;4;493;393;25;3;289;14618;4;332;428;24;4;439;19687;5;457;211;21;5;302;52105;4;143;98;397;635;30;6;188;39709;4;92;89;463;368;28;7;353;36042;4;390;385;25;8;72;34915;4;104;385;24;9;4;18746;6;10;542;17
16.02.19;17:05:00;1;218;11428;0;2;569;22510;4;618;355;26;3;416;14594;4;466;430;25;4;522;19650;5;544;213;22;5;392;52079;4;199;127;407;635;30;6;308;39693;4;119;147;475;521;28;7;614;36014;4;660;397;26;8;137;34909;4;165;364;24;9;5;18746;6;9;552;18
16.02.19;17:00:00;1;219;11410;0;2;734;22463;4;792;353;27;3;506;14560;4;560;431;25;4;597;19607;5;622;208;22;5;521;52046;4;276;174;409;587;30;6;445;39666;4;223;252;599;566;29;7;863;35963;4;919;413;26;8;248;34898;4;283;415;25;9;8;18745;6;13;553;18
16.02.19;16:55:00;1;218;11391;0;2;907;22403;4;968;354;28;3;610;14518;4;665;435;26;4;678;19557;5;706;201;22;5;719;52001;4;369;272;424;587;31;6;581;39628;4;324;353;598;574;29;7;1225;35892;4;1300;480;27;8;386;34878;4;431;473;25;9;8;18745;6;12;562;19
16.02.19;16:50:00;1;227;11373;0;2;1108;22328;4;1177;354;29;3;706;14468;4;766;432;26;4;740;19501;5;771;202;23;5;925;51941;4;466;371;426;634;31;6;722;39579;4;387;397;594;572;29;7;1577;35791;4;1670;491;27;8;454;34846;4;499;469;26;9;62;18744;4;87;442;20
16.02.19;16:45:00;1;222;11354;0;2;1307;22235;4;1382;354;30;3;787;14409;4;847;427;27;4;777;19439;5;809;218;23;5;1169;51862;4;570;490;425;687;31;6;887;39518;4;447;467;597;576;29;7;1860;35661;4;1963;480;28;8;597;34808;4;640;397;27;9;70;18739;4;102;496;21
16.02.19;16:40:00;1;512;11332;0;2;1496;22127;4;1579;358;31;3;860;14344;4;924;436;27;4;837;19375;5;872;225;23;5;1382;51764;4;702;580;431;688;32;6;1053;39443;4;580;580;602;576;29;7;2094;35506;4;2191;482;28;8;962;34759;4;1013;369;27;9;78;18733;4;111;501;21
16.02.19;16:35:00;1;218;11290;0;2;1751;22003;4;1852;386;32;3;982;14272;4;1048;419;27;4;933;19305;5;972;205;23;5;1622;51648;4;828;690;426;700;32;6;1233;39355;4;599;620;607;572;30;7;2285;35332;4;2401;479;29;8;1516;34680;4;1592;374;28;9;93;18726;4;121;495;22
16.02.19;16:30:00;1;223;11272;0;2;1941;21859;4;2049;390;33;3;1057;14191;4;1128;426;28;4;1026;19228;5;1069;202;23;5;1839;51512;4;948;796;430;690;32;6;1418;39251;4;700;711;604;574;30;7;2497;35142;4;2620;485;29;8;2078;34555;4;2184;439;29;9;90;18719;4;114;380;23
16.02.19;16:25:00;1;231;11253;0;2;2073;21697;4;2189;386;34;3;1137;14103;4;1209;417;28;4;1036;19142;5;1079;201;24;5;2088;51356;4;1093;902;433;693;33;6;1595;39131;4;809;822;603;579;30;7;2712;34935;4;2843;480;30;8;2489;34384;4;2612;448;29;9;277;18711;4;311;353;24
16.02.19;16:20:00;1;276;11234;0;2;2188;21524;4;2305;386;35;3;1203;14008;4;1278;415;29;4;1051;19056;5;1095;209;24;5;2332;51181;4;1224;1003;426;686;33;6;1769;38998;4;891;900;601;573;30;7;2895;34710;4;3034;478;30;8;2748;34178;4;2880;467;30;9;771;18689;4;820;354;25
16.02.19;16:15:00;1;281;11211;0;2;2246;21342;4;2371;381;35;3;1253;13908;4;1331;423;29;4;1082;18968;5;1126;201;24;5;2536;50986;4;1341;1105;433;695;33;6;1943;38849;4;996;1005;596;577;30;7;3040;34469;4;3197;476;31;8;2968;33950;4;3113;472;30;9;1091;18627;4;1151;359;26
16.02.19;16:10:00;1;259;11187;0;2;2296;21155;4;2418;369;36;3;1350;13804;4;1430;417;29;4;1128;18878;5;1175;199;24;5;2786;50772;4;1480;1214;427;697;34;6;2128;38686;4;1087;1068;603;577;30;7;3198;34216;4;3346;475;31;8;3132;33702;4;3282;470;31;9;1274;18537;4;1345;393;27
16.02.19;16:05:00;1;222;11165;0;2;2530;20964;4;2667;377;37;3;1417;13691;4;1500;419;30;4;1078;18784;5;1123;200;25;5;3034;50540;4;1609;1326;432;701;34;6;2308;38507;4;1173;1166;603;573;31;7;3355;33949;4;3529;471;31;8;3289;33442;4;3453;474;31;9;1448;18431;4;1530;414;28
16.02.19;16:00:00;1;227;11146;0;2;2647;20753;4;2789;379;38;3;1478;13573;4;1567;418;30;4;1047;18694;5;1090;200;25;5;3291;50286;4;1755;1445;432;703;34;6;2516;38314;4;1278;1269;602;579;31;7;3512;33670;4;3696;472;32;8;3444;33168;4;3619;464;32;9;1606;18311;4;1698;450;29
16.02.19;15:55:00;1;283;11127;0;2;2748;20534;4;2896;382;39;3;1541;13450;4;1626;410;31;4;1028;18607;5;1071;205;25;5;3553;50009;4;1898;1567;432;687;34;6;2704;38103;4;1405;1382;598;575;31;7;3670;33378;4;3847;470;32;8;3602;32882;4;3781;471;32;9;1827;18178;4;1932;496;30
16.02.19;15:50:00;1;576;11107;0;2;2876;20306;4;3033;388;39;3;1598;13322;4;1688;418;31;4;1038;18521;5;1081;204;26;5;3790;49712;4;2040;1670;429;690;35;6;2883;37878;4;1482;1450;596;571;31;7;3812;33073;4;4002;467;32;8;3732;32582;4;3915;467;32;9;2015;18026;4;2134;509;31
16.02.19;15:45:00;1;308;11056;0;2;2991;20066;4;3151;381;40;3;1646;13189;4;1735;415;31;4;1062;18435;5;1106;199;26;5;4019;49395;4;2166;1774;428;691;35;6;3059;37636;4;1585;1567;598;571;31;7;3933;32755;4;4131;463;33;8;3865;32273;4;4054;468;32;9;2125;17859;4;2249;520;32
16.02.19;15:40:00;1;282;11030;0;2;3046;19817;4;3213;386;40;3;1682;13052;4;1772;415;32;4;1070;18346;5;1114;200;27;5;4209;49059;4;2264;1864;431;684;35;6;3208;37380;4;1650;1616;596;569;31;7;4056;32428;4;4253;462;33;8;3982;31950;4;4170;460;33;9;2188;17681;4;2319;516;32
16.02.19;15:35:00;1;428;11006;0;2;3142;19563;4;3314;392;41;3;1716;12912;4;1812;418;32;4;1116;18257;5;1162;206;27;5;4381;48707;4;2382;1938;427;685;35;6;3325;37112;4;1723;1678;595;570;31;7;4163;32093;4;4371;464;33;8;4092;31620;4;4296;467;33;9;2254;17500;4;2384;517;32
16.02.19;15:30:00;1;295;10976;0;2;3145;19301;4;3316;379;41;3;1721;12769;4;1815;414;32;4;1235;18164;5;1287;209;28;5;4542;48341;4;2460;2020;428;679;36;6;3442;36834;4;1769;1725;588;562;32;7;4265;31743;4;4482;461;34;8;4200;31277;4;4405;462;33;9;2309;17312;4;2446;508;33
16.02.19;15:25:00;1;324;10952;0;2;3225;19040;4;3403;390;42;3;1766;12626;4;1859;411;33;4;1347;18062;5;1403;215;29;5;4688;47963;4;2542;2071;420;674;36;6;3550;36548;4;1812;1778;585;564;32;7;4432;31389;4;4649;460;34;8;4346;30927;4;4559;461;34;9;2394;17119;4;2534;512;33
16.02.19;15:20:00;1;357;10925;0;2;3366;18772;4;3553;391;43;3;1818;12479;4;1911;410;33;4;1518;17949;5;1581;222;29;5;5015;47569;4;2733;2220;421;668;36;6;3802;36249;4;1949;1903;584;559;32;7;4530;31019;4;4758;469;34;8;4450;30565;4;4670;467;34;9;2447;16919;4;2590;518;33
16.02.19;15:15:00;1;329;10895;0;2;3468;18491;4;3663;394;43;3;1857;12327;4;1957;411;33;4;1621;17824;5;1688;212;30;5;5227;47151;4;2852;2311;422;683;36;6;3981;35931;4;2045;2003;585;562;32;7;4623;30641;4;4853;464;34;8;4543;30194;4;4776;461;34;9;2499;16716;4;2650;515;34
16.02.19;15:10:00;1;267;10867;0;2;3536;18202;4;3732;389;43;3;1890;12173;4;1986;405;34;4;1787;17689;5;1862;224;31;5;5413;46714;4;2936;2406;423;677;37;6;4121;35598;4;2114;2067;585;565;32;7;4705;30256;4;4943;458;34;8;4639;29816;4;4864;461;34;9;2550;16508;4;2701;516;34
16.02.19;15:05:00;1;463;10846;0;2;3606;17908;4;3808;393;44;3;1933;12015;4;2035;414;34;4;1960;17541;5;2041;228;31;5;5631;46262;4;3071;2500;420;678;37;6;4272;35254;4;2188;2134;587;567;32;7;4784;29864;4;5029;466;35;8;4718;29430;4;4960;459;34;9;2593;16295;4;2750;514;34
16.02.19;15:00:00;1;229;10801;0;2;3664;17609;4;3872;384;44;3;2051;11854;4;2160;439;35;4;2137;17377;5;2226;233;32;5;5828;45792;4;3183;2584;424;674;37;6;4436;34897;4;2265;2221;588;564;32;7;4882;29465;4;5122;470;35;8;4803;29037;4;5048;466;34;9;2653;16079;4;2810;514;34
16.02.19;14:55:00;1;226;10780;0;2;3731;17303;4;3940;388;44;3;2217;11684;4;2340;459;36;4;2307;17200;5;2404;232;33;5;6029;45304;4;3291;2674;421;673;37;6;4583;34526;4;2368;2314;586;562;32;7;4966;29059;4;5215;455;35;8;4902;28638;4;5147;457;35;9;2697;15860;4;2856;512;35
16.02.19;14:50:00;1;231;10761;0;2;3782;16993;4;3996;392;44;3;2338;11499;4;2466;483;36;4;2441;17008;5;2543;229;33;5;6199;44802;4;3391;2765;422;677;37;6;4720;34144;4;2435;2378;584;564;32;7;5063;28646;4;5318;458;35;8;4993;28229;4;5246;456;35;9;2756;15634;4;2917;513;35
16.02.19;14:45:00;1;251;10742;0;2;3798;16677;4;4007;387;44;3;2428;11305;4;2565;500;36;4;2578;16804;5;2685;230;34;5;6328;44283;4;3469;2817;419;670;38;6;4816;33750;4;2494;2428;581;560;32;7;5126;28223;4;5390;455;35;8;5060;27812;4;5310;451;35;9;2793;15404;4;2957;506;35
16.02.19;14:40:00;1;257;10720;0;2;3850;16361;4;4061;385;44;3;2481;11103;4;2615;489;36;4;2705;16590;5;2818;229;34;5;6507;43756;4;3548;2894;420;660;38;6;4946;33348;4;2541;2484;579;560;32;7;5203;27798;4;5465;461;35;8;5122;27392;4;5383;455;35;9;2835;15171;4;2999;508;35